Flag for Jamaica Weather past 2 weeks in Montego Bay, Jamaica

Now
82 °F

Passing clouds.


Feels Like: 89 °F
Forecast: 78 / 89 °F
Wind: 6 mph from East

Location: Montego Bay / Sangster

Current Time: May 23, 2015 at 7:11:24 AM

Latest Report: May 23, 2015 at 7:00 AM


Visibility: N/A

Pressure: 30.04 "Hg

Humidity: 79%

Dew point: 75 °F

Location of Montego BayLocation

Historic Weather in Montego Bay — Graph

°F

Montego Bay temperature yesterday

Maximum temperature yesterday: 88 °F (at 2:00 PM)
Minimum temperature yesterday: 77 °F (at 12:00 AM)
Average temperature yesterday: 82 °F

Past Weeks' High & Low Weather Summary

 TemperatureHumidityPressure
High90 °F (May 8, 1:00 PM)94% (May 22, 3:00 AM)30.07 "Hg (May 22, 3:00 AM)
Low75 °F (May 9, 4:00 AM)46% (May 9, 4:00 PM)29.89 "Hg (May 8, 2:00 PM)
Average82 °F75%29.97 "Hg
* Reported May 8 5:00 AM — May 23 5:00 AM, Montego Bay, Weather by CustomWeather, © 2015

Note: Actual official high and low records may vary slightly from our data, if they occured in-between our weather recording intervals... More about our weather records

Advertising

Montego Bay weather history for previous 24 hours

 ConditionsComfort  
Time TempWeatherWind HumidityBarometerVisibility
5:00 AM
Sat, May 23
79 °FPassing clouds.2 mph84%30.01 "HgN/A
4:00 AM79 °FPassing clouds.1 mph89%30.01 "HgN/A
1:00 AM79 °FPassing clouds.6 mph89%30.04 "HgN/A
12:00 AM79 °FPassing clouds.5 mph84%30.04 "HgN/A
11:00 PM
Fri, May 22
81 °FPassing clouds.5 mph84%30.04 "HgN/A
10:00 PM81 °FPassing clouds.5 mph84%30.07 "HgN/A
9:00 PM81 °FPassing clouds.6 mph84%30.07 "HgN/A
8:00 PM81 °FPassing clouds.3 mph84%30.04 "HgN/A
7:00 PM82 °FPassing clouds.7 mph84%30.01 "HgN/A
6:00 PM86 °FPassing clouds.8 mph66%30.01 "HgN/A
5:00 PM86 °FScattered clouds.14 mph79%29.98 "HgN/A
4:00 PM86 °FScattered clouds.13 mph75%30.01 "HgN/A
3:00 PM86 °FThunderstorms. Scattered clouds.9 mph75%30.01 "HgN/A
2:00 PM88 °FPassing clouds.15 mph70%30.01 "HgN/A
1:00 PM86 °FPassing clouds.16 mph79%30.01 "HgN/A
12:00 PM86 °FPassing clouds.14 mph75%30.01 "HgN/A
11:00 AM86 °FPassing clouds.7 mph75%30.04 "HgN/A
10:00 AM84 °FPassing clouds.5 mph79%30.04 "HgN/A
9:00 AM82 °FPassing clouds.3 mph74%30.04 "HgN/A
8:00 AM84 °FBroken clouds.2 mph74%30.04 "HgN/A
7:00 AM81 °FPartly sunny.2 mph79%30.04 "HgN/A
Weather by CustomWeather, © 2015

See weather overviewHow to use our weather pages